Grand Junction, CO

12:19 AM MDT on October 23, 2019 (GMT -0600)
Walker

Weather History for KGJT - March, 2019

Change the Weather History Date:

Saturday, March 16, 2019

  Actual Average Record
Temperature  
Mean Temperature 42 °F 44 °F  
Max Temperature 56 °F 57 °F 75 °F (2017)
Min Temperature 28 °F 32 °F 17 °F (1902)
Degree Days  
Heating Degree Days 23 21  
Month to date heating degree days 373 366  
Since 1 July heating degree days 4828 4745  
Cooling Degree Days 0 0  
Month to date cooling degree days 0 0  
Year to date cooling degree days 0 0  
Moisture  
Dew Point 23 °F    
Average Humidity 50    
Maximum Humidity 75    
Minimum Humidity 24    
Precipitation  
Precipitation 0.00 in 0.03 in 0.69 in (1987)
Month to date precipitation 1.83 0.42  
Year to date precipitation 3.27 1.54  
Snow  
Snow 0.00 in 0.10 in 5.00 in (1924)
Month to date snowfall 0.0 1.3  
Since 1 July snowfall 17.4 16.8  
Snow Depth 0.00 in    
Sea Level Pressure  
Sea Level Pressure 30.30 in    
Wind  
Wind Speed 6 mph (ESE)    
Max Wind Speed 15 mph    
Max Gust Speed 18 mph    
Visibility 10 miles    
Events      
T = Trace of Precipitation, MM = Missing Value Source: NWS Daily Summary

Daily Weather History Graph

Daily Weather History Graph

Search for Another Location

Airport or City:

Astronomy

Mar. 16, 2019 Rise Set
Actual Time 7:24 AM MDT 7:21 PM MDT
Civil Twilight 6:57 AM MDT 7:48 PM MDT
Nautical Twilight 6:26 AM MDT 8:19 PM MDT
Astronomical Twilight 5:55 AM MDT 8:51 PM MDT
Moon 2:24 PM MDT (3/16) 4:25 AM MDT (3/16)
Length of Visible Light 12h 51m
Length of Day
11h 57m
Waxing Gibbous, 75% of the Moon is Illuminated
Mar 16
Waxing Gibbous
Mar 20
Full
Mar 27
Last Quarter
Apr 5
New
Apr 12
First Quarter

Hourly Weather History & Observations

Time (MDT) Temp. Windchill Dew Point Humidity Pressure Visibility Wind Dir Wind Speed Gust Speed Precip Events Conditions
12:53 AM 33.1 °F 28.7 °F 21.0 °F 61% 30.33 in 10.0 mi ESE 4.6 mph - N/A   Clear
1:53 AM 30.9 °F 25.2 °F 21.9 °F 69% 30.35 in 10.0 mi ESE 5.8 mph - N/A   Clear
2:53 AM 30.0 °F 23.2 °F 21.9 °F 72% 30.34 in 10.0 mi East 6.9 mph - N/A   Clear
3:53 AM 30.9 °F 22.2 °F 21.0 °F 67% 30.33 in 10.0 mi ESE 10.4 mph - N/A   Clear
4:53 AM 28.9 °F 21.1 °F 21.0 °F 72% 30.34 in 10.0 mi ESE 8.1 mph - N/A   Clear
5:53 AM 28.9 °F 20.4 °F 19.9 °F 69% 30.35 in 10.0 mi ESE 9.2 mph - N/A   Clear
6:53 AM 28.9 °F 18.6 °F 19.9 °F 69% 30.37 in 10.0 mi ESE 12.7 mph - N/A   Clear
7:53 AM 30.0 °F 21.1 °F 21.0 °F 69% 30.40 in 10.0 mi ESE 10.4 mph - N/A   Clear
8:53 AM 33.1 °F 23.9 °F 21.0 °F 61% 30.42 in 10.0 mi SE 12.7 mph - N/A   Clear
9:53 AM 37.9 °F 31.5 °F 19.9 °F 48% 30.41 in 10.0 mi SSE 9.2 mph - N/A   Clear
10:53 AM 41.0 °F 35.2 °F 21.0 °F 45% 30.40 in 10.0 mi ESE 9.2 mph - N/A   Clear
11:53 AM 44.1 °F 40.8 °F 21.0 °F 40% 30.37 in 10.0 mi SE 5.8 mph - N/A   Clear
12:53 PM 46.9 °F - 19.9 °F 34% 30.33 in 10.0 mi Calm Calm - N/A   Clear
1:53 PM 50.0 °F - 21.0 °F 32% 30.29 in 10.0 mi Calm Calm - N/A   Clear
2:53 PM 52.0 °F - 24.1 °F 34% 30.26 in 10.0 mi SW 4.6 mph - N/A   Clear
3:53 PM 55.0 °F - 23.0 °F 29% 30.22 in 10.0 mi Calm Calm - N/A   Clear
4:53 PM 55.0 °F - 19.0 °F 24% 30.22 in 10.0 mi NW 4.6 mph - N/A   Clear
5:53 PM 54.0 °F - 21.0 °F 28% 30.21 in 10.0 mi Calm Calm - N/A   Clear
6:53 PM 52.0 °F - 24.1 °F 34% 30.21 in 10.0 mi NW 5.8 mph - N/A   Clear
7:53 PM 46.0 °F 43.9 °F 28.0 °F 50% 30.23 in 10.0 mi NNW 4.6 mph - N/A   Clear
8:53 PM 43.0 °F 40.3 °F 28.0 °F 56% 30.24 in 10.0 mi North 4.6 mph - N/A   Clear
9:53 PM 41.0 °F - 28.0 °F 60% 30.24 in 10.0 mi Calm Calm - N/A   Clear
10:53 PM 37.9 °F 34.4 °F 28.0 °F 68% 30.24 in 10.0 mi ENE 4.6 mph - N/A   Clear
11:53 PM 36.0 °F 32.1 °F 27.0 °F 70% 30.25 in 10.0 mi ENE 4.6 mph - N/A   Clear